Flag for India Weather past 2 weeks in Lucknow, Uttar Pradesh, India

Now
86 °F

Haze.


Feels Like: 99 °F
Forecast: 81 / 100 °F
Wind: 3 mph from East

Location: Lucknow / Amausi

Current Time: Aug 29, 2014 at 11:42:43 PM

Latest Report: Aug 29, 2014 at 11:00 PM


Visibility: 2 mi

Pressure: 29.65 "Hg

Humidity: 79%

Dew point: 79 °F

Location of LucknowLocation

Historic Weather in Lucknow — Graph

°F

Lucknow temperature yesterday

Maximum temperature yesterday: 99 °F (at 1:00 PM)
Minimum temperature yesterday: 81 °F (at 2:00 AM)
Average temperature yesterday: 88 °F

Past Weeks' High & Low Weather Summary

 TemperatureHumidityPressure
High106 °F (Aug 26, 3:30 PM)94% (Aug 16, 2:00 AM)29.77 "Hg (Aug 16, 2:00 AM)
Low79 °F (Aug 16, 5:00 AM)42% (Aug 24, 5:00 PM)29.45 "Hg (Aug 26, 5:30 PM)
Average91 °F70%29.62 "Hg
* Reported Aug 14 10:00 PM — Aug 29 10:00 PM, Lucknow, Weather by CustomWeather, © 2014

Note: Actual official high and low records may vary slightly from our data, if they occured in-between our weather recording intervals... More about our weather records

Advertising

Lucknow weather history for previous 24 hours

 ConditionsComfort  
Time TempWeatherWind HumidityBarometerVisibility
10:00 PM
Aug 29
86 °FHaze.2 mph79%29.65 "Hg2 mi
9:00 PM88 °FHaze.3 mph75%29.65 "Hg2 mi
8:30 PM88 °FPassing clouds.5 mph75%29.62 "Hg2 mi
8:00 PM88 °FPassing clouds.5 mph79%29.62 "Hg2 mi
7:30 PM90 °FPassing clouds.5 mph71%29.59 "Hg2 mi
7:00 PM90 °FPassing clouds.6 mph75%29.59 "Hg2 mi
6:30 PM91 °FScattered clouds.5 mph67%29.56 "Hg3 mi
6:00 PM95 °FScattered clouds.6 mph60%29.56 "Hg3 mi
5:30 PM95 °FScattered clouds.6 mph60%29.56 "Hg3 mi
5:00 PM97 °FScattered clouds.8 mph56%29.56 "Hg3 mi
4:30 PM97 °FScattered clouds.8 mph60%29.53 "Hg3 mi
4:00 PM97 °FScattered clouds.7 mph60%29.56 "Hg3 mi
3:30 PM97 °FScattered clouds.6 mph60%29.56 "Hg3 mi
2:30 PM99 °FScattered clouds.7 mph57%29.56 "Hg3 mi
2:00 PM97 °FScattered clouds.9 mph60%29.59 "Hg3 mi
1:30 PM97 °FScattered clouds.8 mph60%29.62 "Hg3 mi
1:00 PM97 °FScattered clouds.8 mph60%29.62 "Hg3 mi
12:30 PM97 °FScattered clouds.7 mph60%29.62 "Hg3 mi
12:00 PM97 °FScattered clouds.7 mph60%29.65 "Hg3 mi
11:30 AM95 °FScattered clouds.7 mph63%29.65 "Hg3 mi
11:00 AM95 °FScattered clouds.7 mph63%29.65 "Hg3 mi
10:30 AM93 °FScattered clouds.9 mph67%29.68 "Hg3 mi
10:00 AM91 °FScattered clouds.9 mph71%29.68 "Hg3 mi
9:30 AM91 °FScattered clouds.7 mph71%29.68 "Hg3 mi
8:30 AM90 °FHaze.7 mph75%29.68 "Hg3 mi
8:00 AM88 °FHaze.6 mph79%29.68 "Hg2 mi
7:30 AM86 °FHaze.6 mph84%29.68 "Hg2 mi
6:30 AM82 °FHaze.6 mph94%29.65 "Hg2 mi
6:00 AM82 °FHaze.5 mph89%29.65 "Hg2 mi
5:00 AM82 °FHaze.5 mph89%29.65 "Hg2 mi
4:00 AM82 °FPassing clouds.5 mph89%29.65 "Hg2 mi
3:00 AM82 °FPartly cloudy.5 mph89%29.65 "Hg2 mi
2:00 AM82 °FPartly cloudy.5 mph89%29.65 "Hg2 mi
12:00 AM84 °FPartly cloudy.5 mph89%29.68 "Hg2 mi
11:00 PM
Aug 28
84 °FPartly cloudy.5 mph89%29.68 "Hg2 mi
Weather by CustomWeather, © 2014

See weather overviewHow to use our weather pages